Weather History for Fort Knox, KY

Change the Weather History Date:

Sunday, December 9, 2012

  Actual Average Record
Temperature  
Mean Temperature 56 °F -  
Max Temperature 64 °F 45 °F 64 °F (2012)
Min Temperature 49 °F 29 °F 10 °F (2005)
Degree Days  
Heating Degree Days 8    
Growing Degree Days 6 (Base 50)    
Moisture  
Dew Point 54 °F    
Average Humidity 91    
Maximum Humidity 100    
Minimum Humidity 64    
Precipitation  
Precipitation 0.39 in - - ()
Sea Level Pressure  
Sea Level Pressure 29.87 in    
Wind  
Wind Speed 7 mph (SE)    
Max Wind Speed 17 mph    
Max Gust Speed 29 mph    
Visibility 5 miles    
Events Rain , Thunderstorm    
Averages and records for this station are not official NWS values.
T = Trace of Precipitation, MM = Missing Value Source: NWS Daily Summary

Daily Weather History Graph

Daily Weather History Graph

Search for Another Location

Airport:

Trip Planner

Search our weather history database for the weather conditions in past years. The results will help you decide how hot, cold, wet, or windy it might be!

Date:

Astronomy

Dec. 09, 2012 Rise Set
Actual Time 7:48 AM EST 5:24 PM EST
Civil Twilight 7:19 AM EST 5:53 PM EST
Nautical Twilight 6:46 AM EST 6:26 PM EST
Astronomical Twilight 6:14 AM EST 6:58 PM EST
Moon 3:23 AM EST (12/9) 2:28 PM EST (12/9)
Length of Visible Light 10h 34m
Length of Day
9h 36m
Waning Crescent, 19% of the Moon is Illuminated
Dec 9
Waning Crescent
Dec 13
New
Dec 20
First Quarter
Dec 28
Full
Jan 4
Last Quarter

Hourly Weather History & Observations

Time (EST) Temp. Dew Point Humidity Pressure Visibility Wind Dir Wind Speed Gust Speed Precip Events Conditions
12:55 AM 49.5 °F 48.7 °F 97% 29.97 in 10.0 mi ENE 5.8 mph - N/A   Overcast
1:55 AM 49.8 °F 49.1 °F 97% 29.97 in 10.0 mi ENE 6.9 mph - N/A   Overcast
2:55 AM 50.2 °F 49.6 °F 98% 29.96 in 10.0 mi ENE 5.8 mph - N/A   Overcast
3:55 AM 50.4 °F 49.8 °F 98% 29.95 in 10.0 mi NE 5.8 mph - N/A   Overcast
5:55 AM 50.5 °F 50.4 °F 99% 29.94 in 5.0 mi ENE 4.6 mph - N/A   Overcast
6:23 AM 50.0 °F 50.0 °F 100% 29.92 in 3.0 mi East 5.8 mph - N/A Rain Light Rain
6:38 AM 50.0 °F 50.0 °F 100% 29.91 in 1.5 mi East 6.9 mph - N/A   Overcast
6:55 AM 50.7 °F 50.4 °F 99% 29.93 in 1.5 mi East 8.1 mph - N/A   Overcast
7:16 AM 51.8 °F 50.0 °F 94% 29.91 in 1.8 mi NE 4.6 mph - N/A Rain , Thunderstorm Light Thunderstorms and Rain
7:31 AM 51.8 °F 50.0 °F 94% 29.91 in 1.5 mi East 4.6 mph - N/A Rain , Thunderstorm Heavy Thunderstorms and Rain
7:48 AM 51.8 °F 51.8 °F 100% 29.91 in 2.0 mi ENE 4.6 mph - N/A Rain , Thunderstorm Thunderstorms and Rain
7:55 AM 51.4 °F 51.4 °F 100% 29.94 in 2.0 mi Calm Calm - 0.28 in Rain , Thunderstorm Light Thunderstorms and Rain
8:08 AM 51.8 °F 51.8 °F 100% 29.92 in 1.2 mi Calm Calm - N/A Rain Light Rain
8:24 AM 51.8 °F 51.8 °F 100% 29.90 in 1.8 mi East 8.1 mph - N/A Rain Light Rain
8:39 AM 51.8 °F 51.8 °F 100% 29.89 in 2.0 mi East 5.8 mph - N/A   Overcast
8:55 AM 52.3 °F 52.3 °F 100% 29.90 in 2.0 mi East 8.1 mph - 0.11 in   Overcast
9:55 AM 54.1 °F 54.1 °F 100% 29.92 in 2.0 mi Calm Calm - N/A   Light Drizzle
10:14 AM 55.4 °F 55.4 °F 100% 29.89 in 2.0 mi East 3.5 mph - N/A Rain Light Rain
10:55 AM 64.4 °F 51.8 °F 64% 29.89 in 5.0 mi East 3.5 mph - N/A   Mostly Cloudy
11:55 AM 60.8 °F 55.4 °F 82% 29.88 in 7.0 mi South 10.4 mph - N/A   Overcast
12:55 PM 62.6 °F 57.2 °F 82% 29.92 in 7.0 mi South 13.8 mph - N/A   Overcast
1:15 PM 62.6 °F 57.2 °F 82% 29.85 in 7.0 mi South 11.5 mph - N/A   Overcast
1:55 PM 64.4 °F 57.2 °F 77% 29.83 in 10.0 mi South 13.8 mph 20.7 mph N/A   Overcast
2:55 PM 62.6 °F 57.2 °F 82% 29.82 in 10.0 mi South 11.5 mph 17.3 mph N/A   Overcast
3:55 PM 62.6 °F 57.2 °F 82% 29.89 in 10.0 mi South 11.5 mph 17.3 mph N/A   Overcast
4:56 PM 62.6 °F 57.2 °F 82% 29.89 in 10.0 mi South 11.5 mph - N/A   Overcast
5:55 PM 60.8 °F 57.2 °F 88% 29.87 in 10.0 mi South 9.2 mph - N/A   Overcast
6:55 PM 60.8 °F 57.2 °F 88% 29.85 in 7.0 mi South 9.2 mph - 0.00 in Rain Light Rain
7:55 PM 60.8 °F 57.2 °F 88% 29.82 in 7.0 mi South 13.8 mph - 0.00 in   Overcast
8:57 PM 62.6 °F 57.2 °F 82% 29.78 in 7.0 mi South 11.5 mph - N/A   Overcast
9:41 PM 62.6 °F 57.2 °F 82% 29.72 in 7.0 mi South 11.5 mph 17.3 mph N/A Thunderstorm Thunderstorm
9:55 PM 62.6 °F 57.2 °F 82% 29.76 in 7.0 mi South 11.5 mph 17.3 mph 0.00 in Rain , Thunderstorm Light Thunderstorms and Rain
10:07 PM 62.6 °F 57.2 °F 82% 29.76 in 1.5 mi West 17.3 mph 28.8 mph N/A Rain , Thunderstorm Heavy Thunderstorms and Rain
10:13 PM 57.2 °F 57.2 °F 100% 29.77 in 3.0 mi West 17.3 mph 28.8 mph N/A Rain , Thunderstorm Light Thunderstorms and Rain
10:32 PM 59.0 °F 57.2 °F 94% 29.77 in 3.0 mi West 11.5 mph 17.3 mph N/A Rain Light Rain
10:55 PM 59.0 °F 57.2 °F 94% 29.83 in 3.0 mi West 11.5 mph 17.3 mph N/A Rain Light Rain
11:52 PM 57.2 °F 55.4 °F 94% 29.74 in 3.0 mi Variable 3.5 mph - N/A Rain Light Rain
11:54 PM 57.2 °F 55.4 °F 94% 29.81 in 3.0 mi Variable 3.5 mph - N/A Rain Light Rain